Terminal Aerodrome Forecast
Issued by NWS Upton, NY

Home | Current Version | Previous Version | Text Only | Print | Product List | Glossary On
Versions: 1 2 3 4 5 6 7 8 9 10 11 12 13 14 15 16 17 18 19 20 21 22 23 24 25 26 27 28 29 30 31 32 33
790
FTUS41 KOKX 190540
TAFLGA
TAF
KLGA 190540Z 1906/2006 21008KT 6SM BR SCT020 SCT080 BKN250
     FM190700 26005KT 6SM BR SCT020 BKN050 BKN250
      TEMPO 1907/1910 BKN020
     FM191100 31006KT P6SM SCT050 BKN250
     FM191500 28008KT P6SM SCT025 SCT050
     FM191800 23008KT P6SM SCT040
     FM192000 18011KT P6SM SCT045
     FM200300 27008KT P6SM FEW025=

USA.gov is the U.S. government's official web portal to all federal, state and local government web resources and services.